Wetterstation Vordersexau
Wetterdaten: Jahr 2015
Datum Temp. A. Feuchte A. Luftdruck Regen Wind Richtung Taupunkt Windchill Windben
01.01.2015 -3,5 C 87 % 1006,8 hPa 0,0 l/m 0,0 km/h O -5,4 C -3,5 C 0,0 km/h
02.01.2015 -0,8 C 87 % 1005,0 hPa 0,6 l/m 1,7 km/h O -2,7 C -1,2 C 1,1 km/h
03.01.2015 4,9 C 85 % 997,4 hPa 1,0 l/m 7,6 km/h N-NO 2,6 C 2,5 C 7,4 km/h
04.01.2015 4,0 C 81 % 1003,4 hPa 1,7 l/m 0,0 km/h O-SO 1,0 C 4,0 C 0,0 km/h
05.01.2015 1,1 C 79 % 1003,6 hPa 0,0 l/m 0,2 km/h O-SO -2,4 C 1,1 C 0,1 km/h
06.01.2015 0,3 C 80 % 996,0 hPa 0,0 l/m 0,1 km/h O-SO -2,8 C 0,3 C 0,1 km/h
07.01.2015 1,4 C 87 % 1002,5 hPa 0,8 l/m 0,0 km/h O-SO -0,5 C 1,4 C 0,0 km/h
08.01.2015 8,1 C 82 % 1014,3 hPa 1,5 l/m 12,2 km/h SW 5,2 C 5,1 C 8,0 km/h
09.01.2015 8,8 C 82 % 1027,9 hPa 0,7 l/m 34,2 km/h SW 5,9 C -0,4 C 16,7 km/h
10.01.2015 13,0 C 80 % 1020,2 hPa 0,0 l/m 30,6 km/h W-SW 9,6 C 5,3 C 16,3 km/h
11.01.2015 5,1 C 81 % 1022,6 hPa 14,0 l/m 12,3 km/h W 2,1 C 0,8 C 6,8 km/h
12.01.2015 6,0 C 65 % 1024,3 hPa 0,0 l/m 14,7 km/h S-SW -0,2 C 0,9 C 8,2 km/h
13.01.2015 9,2 C 54 % 1014,2 hPa 0,0 l/m 8,0 km/h N-NO -0,1 C 7,3 C 4,5 km/h
14.01.2015 6,2 C 82 % 1015,0 hPa 10,9 l/m 11,4 km/h N-NO 3,4 C 2,7 C 6,3 km/h
15.01.2015 7,8 C 72 % 1008,2 hPa 0,0 l/m 1,6 km/h N-NO 2,9 C 7,4 C 0,9 km/h
16.01.2015 6,5 C 81 % 1005,1 hPa 24,9 l/m 5,6 km/h W 3,4 C 5,0 C 3,1 km/h
17.01.2015 3,2 C 84 % 1013,0 hPa 17,1 l/m 0,1 km/h SO 0,8 C 3,2 C 0,0 km/h
18.01.2015 1,6 C 81 % 1013,7 hPa 0,0 l/m 0,3 km/h NW -1,5 C 1,5 C 0,2 km/h
19.01.2015 0,2 C 87 % 1008,8 hPa 3,9 l/m 0,0 km/h NW -1,7 C 0,2 C 0,0 km/h
20.01.2015 1,1 C 86 % 1008,7 hPa 5,4 l/m 1,4 km/h W -1,0 C 0,5 C 0,8 km/h
21.01.2015 1,2 C 87 % 1006,8 hPa 0,0 l/m 0,2 km/h W-NW -0,8 C 1,2 C 0,1 km/h
22.01.2015 0,2 C 87 % 1010,5 hPa 0,0 l/m 0,0 km/h N-NW -1,8 C 0,2 C 0,0 km/h
23.01.2015 1,1 C 86 % 1019,3 hPa 0,8 l/m 0,0 km/h W -0,9 C 1,1 C 0,0 km/h
24.01.2015 1,4 C 86 % 1020,4 hPa 0,0 l/m 3,0 km/h W -0,7 C 0,4 C 1,6 km/h
25.01.2015 1,5 C 85 % 1026,9 hPa 3,9 l/m 0,0 km/h S-SW -0,8 C 1,5 C 0,0 km/h
26.01.2015 1,0 C 87 % 1022,8 hPa 13,2 l/m 2,1 km/h W-NW -1,0 C 0,1 C 1,2 km/h
27.01.2015 2,4 C 85 % 1021,4 hPa 1,6 l/m 0,1 km/h W 0,1 C 2,4 C 0,0 km/h
28.01.2015 3,2 C 81 % 1013,1 hPa 0,0 l/m 13,8 km/h W 0,2 C -1,9 C 7,7 km/h
29.01.2015 4,1 C 83 % 991,3 hPa 0,8 l/m 14,8 km/h W-SW 1,4 C -1,6 C 8,2 km/h
30.01.2015 2,2 C 84 % 978,6 hPa 2,3 l/m 15,1 km/h S-SW -0,2 C -3,8 C 8,4 km/h
31.01.2015 2,7 C 81 % 983,4 hPa 0,8 l/m 6,8 km/h W-SW -0,2 C 0,7 C 3,8 km/h
01.02.2015 1,6 C 85 % 991,4 hPa 2,3 l/m 13,7 km/h W-SW -0,6 C -3,9 C 7,6 km/h
02.02.2015 0,6 C 87 % 1000,3 hPa 5,4 l/m 2,0 km/h SW -1,3 C 0,1 C 1,1 km/h
03.02.2015 -0,1 C 83 % 1000,9 hPa 5,4 l/m 0,0 km/h SO -2,6 C -0,1 C 0,0 km/h
04.02.2015 -0,7 C 78 % 1007,6 hPa 0,8 l/m 1,1 km/h N-NO -4,2 C -1,0 C 0,6 km/h
05.02.2015 -0,5 C 75 % 1010,8 hPa 0,0 l/m 3,7 km/h N-NO -4,4 C -1,7 C 2,0 km/h
06.02.2015 1,0 C 66 % 1013,5 hPa 0,0 l/m 0,9 km/h N-NO -4,7 C 0,8 C 0,5 km/h
07.02.2015 -0,2 C 65 % 1022,5 hPa 0,0 l/m 0,3 km/h NO -6,4 C -0,3 C 0,2 km/h
08.02.2015 -2,0 C 82 % 1025,7 hPa 0,8 l/m 0,0 km/h SO -4,7 C -2,0 C 0,0 km/h
09.02.2015 0,2 C 79 % 1028,8 hPa 0,8 l/m 0,9 km/h SO -3,1 C -0,2 C 0,5 km/h
10.02.2015 3,3 C 75 % 1026,4 hPa 0,0 l/m 0,0 km/h N-NO -1,1 C 3,3 C 0,0 km/h
11.02.2015 1,3 C 77 % 1022,5 hPa 0,0 l/m 0,2 km/h O-SO -2,5 C 1,3 C 0,1 km/h
12.02.2015 -1,3 C 85 % 1020,1 hPa 0,0 l/m 0,0 km/h N-NW -3,4 C -1,3 C 0,0 km/h
13.02.2015 1,6 C 81 % 1015,5 hPa 0,0 l/m 0,0 km/h W-NW -1,4 C 1,6 C 0,0 km/h
14.02.2015 5,5 C 80 % 1007,5 hPa 3,1 l/m 2,4 km/h SO 2,1 C 4,9 C 1,4 km/h
15.02.2015 0,9 C 87 % 1009,4 hPa 0,0 l/m 0,1 km/h W-NW -1,1 C 0,9 C 0,1 km/h
16.02.2015 1,2 C 87 % 1016,8 hPa 0,0 l/m 0,2 km/h W -0,8 C 1,2 C 0,1 km/h
17.02.2015 1,2 C 86 % 1029,2 hPa 0,0 l/m 0,2 km/h W-NW -0,8 C 1,2 C 0,1 km/h
18.02.2015 4,2 C 77 % 1035,0 hPa 0,0 l/m 1,0 km/h NO 0,4 C 4,0 C 0,6 km/h
19.02.2015 2,8 C 75 % 1028,3 hPa 0,0 l/m 0,4 km/h SO -1,4 C 2,7 C 0,2 km/h
20.02.2015 5,4 C 68 % 1013,6 hPa 0,0 l/m 4,3 km/h O-NO -1,0 C 4,4 C 2,4 km/h
21.02.2015 4,4 C 81 % 1000,4 hPa 4,7 l/m 6,3 km/h S-SW 1,4 C 2,4 C 3,5 km/h
22.02.2015 3,1 C 85 % 1007,2 hPa 0,0 l/m 0,1 km/h SO 0,8 C 3,1 C 0,0 km/h
23.02.2015 3,1 C 86 % 1000,8 hPa 12,4 l/m 5,9 km/h O-SO 1,0 C 1,2 C 3,3 km/h
24.02.2015 4,8 C 79 % 1008,3 hPa 5,4 l/m 8,2 km/h W-SW 1,4 C 2,1 C 4,5 km/h
25.02.2015 5,8 C 74 % 1017,0 hPa 1,6 l/m 0,2 km/h O-SO 0,9 C 5,8 C 0,1 km/h
26.02.2015 6,6 C 68 % 1015,8 hPa 0,0 l/m 0,8 km/h O-NO 0,5 C 6,5 C 0,5 km/h
27.02.2015 4,2 C 83 % 1011,8 hPa 10,4 l/m 1,0 km/h N-NO 1,5 C 4,2 C 0,6 km/h
28.02.2015 5,3 C 76 % 1017,6 hPa 0,4 l/m 1,2 km/h SO 1,1 C 5,2 C 0,7 km/h
01.03.2015 7,7 C 78 % 1008,4 hPa 0,8 l/m 15,9 km/h S-SO 4,1 C 2,6 C 8,9 km/h
02.03.2015 7,3 C 76 % 1009,6 hPa 2,5 l/m 10,4 km/h W-NW 1,4 C 4,1 C 5,8 km/h
03.03.2015 6,5 C 69 % 1020,0 hPa 0,0 l/m 10,1 km/h NO 0,8 C 3,7 C 5,6 km/h
04.03.2015 5,2 C 71 % 1025,1 hPa 0,4 l/m 0,9 km/h O-NO 0,0 C 5,2 C 0,5 km/h
05.03.2015 3,8 C 71 % 1033,0 hPa 0,0 l/m 0,7 km/h N-NO -1,4 C 3,7 C 0,4 km/h
06.03.2015 5,5 C 67 % 1033,4 hPa 0,0 l/m 0,6 km/h SO -0,8 C 5,4 C 0,3 km/h
07.03.2015 5,6 C 70 % 1028,8 hPa 0,0 l/m 0,0 km/h W-NW -0,2 C 5,6 C 0,0 km/h
08.03.2015 7,7 C 70 % 1022,5 hPa 0,0 l/m 1,3 km/h W-NW 2,0 C 7,5 C 0,7 km/h
09.03.2015 9,0 C 70 % 1022,4 hPa 0,0 l/m 0,1 km/h W-NW 3,2 C 9,0 C 0,0 km/h
10.03.2015 9,6 C 70 % 1024,1 hPa 0,0 l/m 0,0 km/h N 3,9 C 9,6 C 0,0 km/h
11.03.2015 8,5 C 68 % 1025,0 hPa 0,0 l/m 1,2 km/h N-NO 2,3 C 8,4 C 0,7 km/h
12.03.2015 6,3 C 60 % 1023,7 hPa 0,0 l/m 0,6 km/h NO -1,9 C 6,3 C 0,3 km/h
13.03.2015 6,6 C 65 % 1017,8 hPa 0,0 l/m 0,4 km/h O-SO -0,2 C 6,5 C 0,2 km/h
14.03.2015 6,3 C 63 % 1018,6 hPa 0,0 l/m 0,4 km/h NW -1,0 C 6,3 C 0,2 km/h
15.03.2015 5,6 C 68 % 1018,2 hPa 0,0 l/m 1,8 km/h O-NO -0,4 C 5,3 C 1,0 km/h
16.03.2015 6,3 C 73 % 1018,6 hPa 0,0 l/m 0,5 km/h O-NO 1,4 C 6,2 C 0,3 km/h
17.03.2015 9,9 C 68 % 1019,5 hPa 0,0 l/m 0,2 km/h W-NW 3,4 C 9,9 C 0,1 km/h
18.03.2015 11,1 C 69 % 1020,9 hPa 0,0 l/m 0,1 km/h S-SW 5,0 C 11,1 C 0,1 km/h
19.03.2015 9,6 C 72 % 1020,8 hPa 0,0 l/m 1,3 km/h NO 4,4 C 9,3 C 0,8 km/h
20.03.2015 8,4 C 68 % 1018,8 hPa 0,0 l/m 1,6 km/h W-NW 2,3 C 8,3 C 0,9 km/h
21.03.2015 7,6 C 71 % 1014,5 hPa 0,0 l/m 2,2 km/h N-NO 2,4 C 7,0 C 1,2 km/h
22.03.2015 7,4 C 68 % 1015,6 hPa 0,0 l/m 0,6 km/h N-NO 1,8 C 7,3 C 0,3 km/h
23.03.2015 10,1 C 64 % 1012,7 hPa 0,0 l/m 0,8 km/h SO 2,8 C 10,0 C 0,5 km/h
24.03.2015 10,9 C 64 % 1005,2 hPa 0,0 l/m 1,3 km/h O-NO 3,3 C 10,8 C 0,7 km/h
25.03.2015 8,5 C 75 % 1002,6 hPa 2,1 l/m 1,3 km/h N-NO 4,2 C 8,2 C 0,7 km/h
26.03.2015 6,3 C 82 % 1008,5 hPa 0,8 l/m 5,7 km/h W 3,4 C 4,4 C 3,2 km/h
27.03.2015 8,4 C 69 % 1017,5 hPa 0,0 l/m 4,1 km/h N-NW 2,5 C 7,6 C 2,3 km/h
28.03.2015 8,3 C 70 % 1019,3 hPa 0,0 l/m 7,8 km/h O-SO 2,6 C 6,1 C 4,3 km/h
29.03.2015 10,6 C 81 % 1009,7 hPa 1,7 l/m 22,9 km/h SW 7,4 C 3,7 C 12,7 km/h
30.03.2015 10,1 C 72 % 1007,1 hPa 7,0 l/m 8,1 km/h W-NW 5,0 C 7,8 C 4,5 km/h
31.03.2015 11,6 C 72 % 1009,0 hPa 1,7 l/m 28,8 km/h W 6,5 C 4,4 C 16,0 km/h
01.04.2015 7,1 C 67 % 1020,2 hPa 3,7 l/m 7,8 km/h W-NW 1,2 C 4,8 C 4,3 km/h
02.04.2015 5,5 C 80 % 1017,6 hPa 7,9 l/m 16,0 km/h W 2,2 C -0,3 C 8,9 km/h
03.04.2015 7,0 C 73 % 1018,1 hPa 0,8 l/m 1,8 km/h S 2,1 C 6,7 C 1,0 km/h
04.04.2015 5,8 C 85 % 1011,4 hPa 10,8 l/m 0,1 km/h SO 3,5 C 5,8 C 0,0 km/h
05.04.2015 7,0 C 63 % 1017,9 hPa 0,0 l/m 0,4 km/h N-NO -0,3 C 7,0 C 0,2 km/h
06.04.2015 5,4 C 62 % 1024,9 hPa 0,0 l/m 0,3 km/h N-NO -1,9 C 5,3 C 0,2 km/h
07.04.2015 8,4 C 59 % 1031,5 hPa 0,0 l/m 1,3 km/h SO -0,6 C 8,2 C 0,7 km/h
08.04.2015 10,7 C 57 % 1029,0 hPa 0,0 l/m 2,2 km/h O-SO 1,4 C 10,5 C 1,2 km/h
09.04.2015 14,0 C 56 % 1024,2 hPa 0,0 l/m 1,6 km/h NO 3,8 C 13,7 C 0,9 km/h
10.04.2015 15,5 C 53 % 1019,6 hPa 0,0 l/m 1,2 km/h SO 4,2 C 15,4 C 0,6 km/h
11.04.2015 13,0 C 61 % 1022,1 hPa 0,8 l/m 6,1 km/h S-SW 5,2 C 11,4 C 3,4 km/h
12.04.2015 15,9 C 62 % 1026,5 hPa 0,0 l/m 0,7 km/h O-SO 7,5 C 15,8 C 0,4 km/h
13.04.2015 14,2 C 63 % 1027,3 hPa 0,0 l/m 0,8 km/h O-SO 6,2 C 14,2 C 0,5 km/h
14.04.2015 16,2 C 58 % 1026,5 hPa 0,0 l/m 2,3 km/h O-SO 6,2 C 16,0 C 1,3 km/h
15.04.2015 18,1 C 51 % 1017,5 hPa 0,0 l/m 1,2 km/h O-NO 5,7 C 18,1 C 0,6 km/h
16.04.2015 16,0 C 56 % 1012,3 hPa 0,0 l/m 4,3 km/h SO 6,6 C 15,5 C 2,4 km/h
17.04.2015 12,4 C 82 % 1011,8 hPa 16,6 l/m 3,8 km/h O-SO 9,3 C 11,9 C 2,1 km/h
18.04.2015 11,4 C 60 % 1018,4 hPa 0,0 l/m 2,2 km/h O-NO 2,7 C 10,9 C 1,2 km/h
19.04.2015 12,7 C 51 % 1015,4 hPa 0,0 l/m 1,2 km/h SO 0,9 C 12,5 C 0,7 km/h
20.04.2015 12,8 C 53 % 1020,5 hPa 0,0 l/m 2,3 km/h N-NO 2,3 C 12,5 C 1,3 km/h
21.04.2015 15,7 C 52 % 1024,2 hPa 0,0 l/m 0,7 km/h N-NO 4,2 C 15,6 C 0,4 km/h
22.04.2015 15,4 C 51 % 1021,0 hPa 0,0 l/m 2,3 km/h NO 3,7 C 15,0 C 1,3 km/h
23.04.2015 12,7 C 55 % 1015,0 hPa 0,0 l/m 1,5 km/h O-NO 2,7 C 12,5 C 0,8 km/h
24.04.2015 15,2 C 52 % 1012,2 hPa 0,0 l/m 1,9 km/h O-NO 3,9 C 15,0 C 1,0 km/h
25.04.2015 12,8 C 74 % 1009,5 hPa 2,9 l/m 2,5 km/h SO 8,3 C 12,5 C 1,4 km/h
26.04.2015 16,5 C 69 % 1005,9 hPa 0,0 l/m 2,9 km/h N-NO 10,5 C 16,1 C 1,6 km/h
27.04.2015 15,6 C 75 % 1000,0 hPa 5,4 l/m 2,4 km/h N-NO 10,9 C 15,1 C 1,3 km/h
28.04.2015 9,4 C 76 % 1013,6 hPa 4,6 l/m 0,5 km/h N-NO 5,4 C 9,4 C 0,3 km/h
29.04.2015 11,8 C 66 % 1015,6 hPa 0,0 l/m 0,8 km/h SO 4,9 C 11,8 C 0,5 km/h
30.04.2015 11,7 C 68 % 1013,8 hPa 2,9 l/m 7,3 km/h SO 5,5 C 10,1 C 4,1 km/h
01.05.2015 10,1 C 82 % 1004,7 hPa 19,1 l/m 6,2 km/h W 7,1 C 8,6 C 3,5 km/h
02.05.2015 12,8 C 77 % 1008,6 hPa 3,3 l/m 8,2 km/h W 8,8 C 10,5 C 4,5 km/h
03.05.2015 15,4 C 82 % 1005,4 hPa 9,1 l/m 6,1 km/h S 12,3 C 14,1 C 3,4 km/h
04.05.2015 20,0 C 67 % 1007,0 hPa 0,4 l/m 2,1 km/h SO 13,6 C 19,8 C 1,2 km/h
05.05.2015 17,0 C 75 % 1005,0 hPa 0,4 l/m 7,3 km/h S 12,5 C 15,7 C 4,0 km/h
06.05.2015 15,8 C 66 % 1013,6 hPa 0,0 l/m 7,3 km/h S 8,8 C 14,6 C 4,1 km/h
07.05.2015 14,8 C 61 % 1017,3 hPa 0,0 l/m 0,9 km/h O-SO 6,4 C 14,8 C 0,5 km/h
08.05.2015 17,3 C 59 % 1013,2 hPa 0,0 l/m 3,8 km/h W-SW 8,3 C 16,8 C 2,1 km/h
09.05.2015 16,4 C 70 % 1019,0 hPa 0,0 l/m 5,5 km/h S-SW 10,7 C 15,6 C 3,1 km/h
10.05.2015 18,1 C 60 % 1024,1 hPa 0,0 l/m 0,3 km/h N-NO 9,0 C 18,1 C 0,2 km/h
11.05.2015 19,9 C 58 % 1020,6 hPa 0,0 l/m 0,1 km/h O-SO 10,0 C 19,9 C 0,1 km/h
12.05.2015 22,1 C 54 % 1016,8 hPa 0,0 l/m 7,0 km/h W-SW 11,2 C 21,8 C 3,9 km/h
13.05.2015 21,6 C 58 % 1014,6 hPa 3,7 l/m 0,4 km/h N 12,6 C 21,6 C 0,2 km/h
14.05.2015 17,5 C 75 % 1009,3 hPa 10,8 l/m 0,9 km/h S-SO 13,0 C 17,4 C 0,5 km/h
15.05.2015 10,1 C 83 % 1012,3 hPa 19,5 l/m 0,6 km/h S-SO 7,4 C 10,0 C 0,3 km/h
16.05.2015 15,8 C 71 % 1021,0 hPa 0,0 l/m 1,8 km/h W 10,4 C 15,7 C 1,0 km/h
17.05.2015 17,7 C 65 % 1021,8 hPa 0,4 l/m 0,7 km/h NO 10,4 C 17,7 C 0,4 km/h
18.05.2015 17,6 C 60 % 1010,8 hPa 0,0 l/m 6,1 km/h W 8,8 C 17,1 C 3,4 km/h
19.05.2015 13,7 C 70 % 1008,2 hPa 0,0 l/m 3,3 km/h W 8,2 C 13,1 C 1,8 km/h
20.05.2015 10,0 C 79 % 1013,4 hPa 7,0 l/m 1,2 km/h SO 6,3 C 9,8 C 0,6 km/h
21.05.2015 12,6 C 62 % 1021,1 hPa 0,0 l/m 2,5 km/h O-NO 4,8 C 12,1 C 1,4 km/h
22.05.2015 14,6 C 54 % 1021,3 hPa 0,0 l/m 1,0 km/h N 4,0 C 14,6 C 0,6 km/h
23.05.2015 16,0 C 55 % 1016,0 hPa 0,0 l/m 1,5 km/h N-NO 6,0 C 15,9 C 0,8 km/h
24.05.2015 17,3 C 66 % 1014,9 hPa 0,0 l/m 0,0 km/h N 10,5 C 17,3 C 0,0 km/h
25.05.2015 15,9 C 73 % 1012,8 hPa 1,7 l/m 1,2 km/h O-NO 10,8 C 15,8 C 0,7 km/h
26.05.2015 13,9 C 72 % 1015,9 hPa 0,4 l/m 1,9 km/h N 8,6 C 13,5 C 1,1 km/h
27.05.2015 13,3 C 63 % 1020,7 hPa 0,0 l/m 0,7 km/h N-NO 5,6 C 13,3 C 0,4 km/h
28.05.2015 16,2 C 60 % 1015,5 hPa 0,0 l/m 4,1 km/h O-SO 7,6 C 15,8 C 2,3 km/h
29.05.2015 16,4 C 67 % 1010,5 hPa 0,0 l/m 4,4 km/h NO 9,8 C 15,9 C 2,5 km/h
30.05.2015 15,0 C 72 % 1013,7 hPa 0,4 l/m 2,3 km/h W 9,7 C 14,8 C 1,3 km/h
31.05.2015 17,3 C 63 % 1014,1 hPa 0,0 l/m 5,2 km/h SO 9,6 C 16,7 C 2,9 km/h
01.06.2015 17,6 C 71 % 1014,6 hPa 0,0 l/m 3,7 km/h W-NW 12,2 C 17,1 C 2,1 km/h
02.06.2015 20,3 C 63 % 1015,9 hPa 0,0 l/m 9,7 km/h NO 12,1 C 19,4 C 5,4 km/h
03.06.2015 22,6 C 55 % 1019,6 hPa 0,0 l/m 3,0 km/h N-NO 11,6 C 22,5 C 1,7 km/h
04.06.2015 22,4 C 62 % 1021,1 hPa 0,0 l/m 1,6 km/h O-SO 13,9 C 22,3 C 0,9 km/h
05.06.2015 26,1 C 59 % 1016,9 hPa 0,0 l/m 0,6 km/h W-NW 16,2 C 26,1 C 0,3 km/h
06.06.2015 25,8 C 62 % 1019,0 hPa 6,2 l/m 2,3 km/h N-NO 17,3 C 25,6 C 1,3 km/h
07.06.2015 23,8 C 64 % 1021,4 hPa 0,0 l/m 2,5 km/h N-NO 16,0 C 23,6 C 1,4 km/h
08.06.2015 16,5 C 78 % 1019,8 hPa 0,4 l/m 1,9 km/h N-NO 12,6 C 16,3 C 1,1 km/h
09.06.2015 16,0 C 71 % 1019,0 hPa 0,0 l/m 2,1 km/h N-NO 10,7 C 15,6 C 1,2 km/h
10.06.2015 18,0 C 69 % 1018,3 hPa 0,0 l/m 0,9 km/h N-NO 12,1 C 18,0 C 0,5 km/h
11.06.2015 22,1 C 66 % 1014,3 hPa 0,0 l/m 1,7 km/h O-NO 14,8 C 22,1 C 1,0 km/h
12.06.2015 21,2 C 71 % 1009,4 hPa 7,5 l/m 3,0 km/h SO 15,1 C 20,9 C 1,7 km/h
13.06.2015 21,3 C 66 % 1009,5 hPa 0,0 l/m 5,7 km/h NO 14,3 C 20,8 C 3,2 km/h
14.06.2015 21,0 C 74 % 1007,5 hPa 15,7 l/m 2,8 km/h S 15,9 C 20,8 C 1,6 km/h
15.06.2015 17,9 C 81 % 1012,2 hPa 13,7 l/m 0,0 km/h SO 14,6 C 17,9 C 0,0 km/h
16.06.2015 17,5 C 78 % 1016,5 hPa 0,0 l/m 0,9 km/h SO 13,7 C 17,5 C 0,5 km/h
17.06.2015 18,4 C 64 % 1019,4 hPa 0,0 l/m 2,3 km/h N-NO 10,8 C 18,3 C 1,3 km/h
18.06.2015 14,7 C 81 % 1016,3 hPa 5,0 l/m 1,2 km/h SO 11,4 C 14,5 C 0,7 km/h
19.06.2015 16,1 C 68 % 1016,2 hPa 0,4 l/m 0,2 km/h NW 9,9 C 16,1 C 0,1 km/h
20.06.2015 14,4 C 76 % 1018,0 hPa 2,5 l/m 0,9 km/h NW 10,2 C 14,3 C 0,5 km/h
21.06.2015 15,8 C 78 % 1016,4 hPa 0,8 l/m 3,4 km/h S-SO 11,9 C 15,5 C 1,9 km/h
22.06.2015 16,9 C 74 % 1010,5 hPa 1,7 l/m 5,4 km/h N-NO 12,0 C 16,1 C 3,0 km/h
23.06.2015 15,3 C 69 % 1012,7 hPa 1,2 l/m 2,2 km/h W-NW 9,3 C 15,0 C 1,2 km/h
24.06.2015 17,7 C 62 % 1019,0 hPa 0,0 l/m 3,1 km/h NO 9,5 C 17,5 C 1,7 km/h
25.06.2015 19,7 C 61 % 1020,2 hPa 0,0 l/m 2,6 km/h N-NO 11,1 C 19,5 C 1,4 km/h
26.06.2015 21,5 C 59 % 1018,8 hPa 0,0 l/m 0,5 km/h NO 12,1 C 21,5 C 0,3 km/h
27.06.2015 21,2 C 64 % 1015,8 hPa 0,4 l/m 2,8 km/h N-NO 13,7 C 21,0 C 1,6 km/h
28.06.2015 21,6 C 58 % 1018,5 hPa 0,0 l/m 1,0 km/h SO 11,6 C 21,6 C 0,6 km/h
29.06.2015 22,7 C 62 % 1018,4 hPa 0,0 l/m 0,8 km/h SO 13,8 C 22,7 C 0,4 km/h
30.06.2015 24,9 C 61 % 1016,9 hPa 0,0 l/m 2,6 km/h NO 16,1 C 24,9 C 1,4 km/h
01.07.2015 27,5 C 56 % 1015,2 hPa 0,0 l/m 1,7 km/h W-NW 16,4 C 27,5 C 0,9 km/h
02.07.2015 29,2 C 58 % 1016,7 hPa 0,0 l/m 0,8 km/h O-NO 19,0 C 29,2 C 0,4 km/h
03.07.2015 29,7 C 58 % 1019,5 hPa 0,0 l/m 2,7 km/h S-SO 19,6 C 29,7 C 1,5 km/h
04.07.2015 29,6 C 52 % 1017,7 hPa 0,0 l/m 3,8 km/h O 17,2 C 29,6 C 2,1 km/h
05.07.2015 30,8 C 51 % 1013,9 hPa 0,0 l/m 3,0 km/h W-NW 18,3 C 30,7 C 1,6 km/h
06.07.2015 27,1 C 52 % 1017,9 hPa 0,0 l/m 1,3 km/h NO 15,9 C 27,1 C 0,7 km/h
07.07.2015 27,9 C 55 % 1010,3 hPa 0,4 l/m 6,4 km/h W 16,5 C 27,9 C 3,6 km/h
08.07.2015 21,5 C 58 % 1012,5 hPa 0,0 l/m 3,1 km/h W-NW 12,4 C 21,2 C 1,7 km/h
09.07.2015 19,7 C 56 % 1017,9 hPa 0,0 l/m 2,2 km/h W-NW 10,2 C 19,5 C 1,2 km/h
10.07.2015 20,3 C 57 % 1018,3 hPa 0,0 l/m 5,0 km/h NO 10,3 C 20,1 C 2,8 km/h
11.07.2015 24,4 C 49 % 1014,3 hPa 0,0 l/m 6,6 km/h O-NO 11,3 C 24,3 C 3,7 km/h
12.07.2015 23,8 C 50 % 1016,3 hPa 0,0 l/m 3,4 km/h N-NO 12,1 C 23,5 C 1,9 km/h
13.07.2015 22,6 C 57 % 1016,6 hPa 0,0 l/m 1,6 km/h NO 13,4 C 22,6 C 0,9 km/h
14.07.2015 24,0 C 57 % 1016,3 hPa 0,0 l/m 3,5 km/h SO 14,2 C 23,9 C 1,9 km/h
15.07.2015 25,6 C 54 % 1016,5 hPa 0,0 l/m 2,5 km/h O-NO 14,2 C 25,5 C 1,4 km/h
16.07.2015 27,7 C 50 % 1014,3 hPa 0,0 l/m 3,1 km/h W-NW 14,6 C 27,6 C 1,7 km/h
17.07.2015 30,0 C 44 % 1013,1 hPa 0,0 l/m 3,6 km/h S-SO 14,8 C 30,0 C 2,0 km/h
18.07.2015 25,3 C 62 % 1014,8 hPa 1,2 l/m 1,9 km/h S-SO 16,8 C 25,2 C 1,1 km/h
19.07.2015 24,1 C 64 % 1010,8 hPa 0,8 l/m 6,5 km/h W-SW 16,4 C 23,7 C 3,6 km/h
20.07.2015 27,3 C 56 % 1012,8 hPa 0,0 l/m 5,8 km/h N-NO 16,7 C 27,3 C 3,2 km/h
21.07.2015 28,2 C 56 % 1013,3 hPa 0,0 l/m 2,6 km/h S-SO 17,3 C 28,2 C 1,5 km/h
22.07.2015 27,2 C 61 % 1011,5 hPa 3,3 l/m 3,6 km/h SO 17,6 C 27,1 C 2,0 km/h
23.07.2015 23,5 C 67 % 1013,8 hPa 4,6 l/m 0,7 km/h NO 16,5 C 23,5 C 0,4 km/h
24.07.2015 25,7 C 60 % 1007,8 hPa 0,0 l/m 2,1 km/h O-NO 16,2 C 25,6 C 1,1 km/h
25.07.2015 21,0 C 58 % 1009,8 hPa 4,6 l/m 13,4 km/h N-NO 12,0 C 19,2 C 7,5 km/h
26.07.2015 17,8 C 62 % 1012,2 hPa 2,1 l/m 1,0 km/h N-NO 9,4 C 17,8 C 0,6 km/h
27.07.2015 19,3 C 67 % 1006,7 hPa 0,4 l/m 11,6 km/h W-SW 12,4 C 17,5 C 6,4 km/h
28.07.2015 19,7 C 57 % 1008,6 hPa 0,0 l/m 10,0 km/h W 10,5 C 18,2 C 5,6 km/h
29.07.2015 15,2 C 79 % 1010,2 hPa 2,1 l/m 1,1 km/h NO 11,4 C 15,1 C 0,6 km/h
30.07.2015 16,8 C 62 % 1013,7 hPa 0,0 l/m 2,0 km/h NO 8,8 C 16,7 C 1,1 km/h
31.07.2015 18,9 C 56 % 1013,5 hPa 0,0 l/m 2,4 km/h N-NO 8,8 C 18,8 C 1,3 km/h
01.08.2015 18,3 C 69 % 1012,3 hPa 0,0 l/m 2,4 km/h S 12,4 C 18,1 C 1,3 km/h
02.08.2015 23,3 C 59 % 1015,6 hPa 0,0 l/m 2,0 km/h S-SO 13,5 C 23,3 C 1,1 km/h
03.08.2015 26,3 C 52 % 1013,9 hPa 0,0 l/m 1,5 km/h SO 14,0 C 26,3 C 0,8 km/h
04.08.2015 21,0 C 70 % 1013,5 hPa 0,4 l/m 2,3 km/h NO 15,2 C 20,7 C 1,3 km/h
05.08.2015 24,1 C 63 % 1014,5 hPa 0,0 l/m 1,4 km/h SO 15,8 C 24,1 C 0,8 km/h
06.08.2015 28,7 C 54 % 1012,5 hPa 0,0 l/m 2,9 km/h NO 16,2 C 28,7 C 1,6 km/h
07.08.2015 31,0 C 43 % 1011,7 hPa 0,0 l/m 1,0 km/h NO 14,9 C 31,0 C 0,6 km/h
08.08.2015 28,7 C 49 % 1015,3 hPa 0,0 l/m 4,2 km/h NO 16,3 C 28,7 C 2,3 km/h
09.08.2015 24,2 C 69 % 1014,6 hPa 2,1 l/m 1,2 km/h W 17,7 C 24,1 C 0,6 km/h
10.08.2015 23,3 C 74 % 1013,3 hPa 10,8 l/m 1,7 km/h W-NW 18,1 C 23,2 C 1,0 km/h
11.08.2015 25,4 C 64 % 1013,7 hPa 0,4 l/m 1,4 km/h N-NW 17,6 C 25,4 C 0,8 km/h
12.08.2015 26,3 C 65 % 1015,6 hPa 0,0 l/m 2,7 km/h NO 18,5 C 26,2 C 1,5 km/h
13.08.2015 26,7 C 63 % 1011,4 hPa 0,0 l/m 2,5 km/h N-NO 18,1 C 26,5 C 1,4 km/h
14.08.2015 21,3 C 75 % 1008,8 hPa 3,7 l/m 1,9 km/h W-NW 16,5 C 21,2 C 1,0 km/h
15.08.2015 18,7 C 75 % 1009,4 hPa 0,4 l/m 8,8 km/h W 14,0 C 17,4 C 4,9 km/h
16.08.2015 16,1 C 80 % 1011,2 hPa 3,3 l/m 0,3 km/h NW 12,5 C 16,1 C 0,2 km/h
17.08.2015 17,7 C 68 % 1011,2 hPa 0,0 l/m 1,5 km/h SO 11,1 C 17,5 C 0,8 km/h
18.08.2015 17,6 C 64 % 1012,8 hPa 0,0 l/m 0,7 km/h SO 10,0 C 17,6 C 0,4 km/h
19.08.2015 16,2 C 72 % 1016,4 hPa 0,0 l/m 0,7 km/h NO 10,8 C 16,2 C 0,4 km/h
06.09.2015 14,1 C 65 % 1021,5 hPa 21,1 l/m 1,1 km/h N-NO 7,2 C 14,0 C 0,6 km/h
07.09.2015 13,5 C 67 % 1023,7 hPa 0,0 l/m 1,5 km/h N-NO 7,0 C 13,4 C 0,8 km/h
08.09.2015 16,7 C 61 % 1020,3 hPa 0,0 l/m 2,1 km/h N-NO 8,2 C 16,6 C 1,1 km/h
09.09.2015 16,0 C 58 % 1016,7 hPa 0,0 l/m 2,5 km/h S-SO 6,3 C 15,9 C 1,4 km/h
10.09.2015 16,0 C 55 % 1014,7 hPa 0,0 l/m 1,6 km/h SO 5,5 C 15,8 C 0,9 km/h
11.09.2015 15,3 C 62 % 1013,8 hPa 0,0 l/m 2,1 km/h N-NO 7,2 C 15,2 C 1,2 km/h
12.09.2015 19,9 C 65 % 1013,0 hPa 2,9 l/m 3,0 km/h SO 12,3 C 19,7 C 1,7 km/h
13.09.2015 19,2 C 76 % 1007,8 hPa 1,7 l/m 0,8 km/h NW 14,6 C 19,2 C 0,4 km/h
14.09.2015 16,6 C 74 % 1005,2 hPa 5,4 l/m 8,0 km/h S 11,8 C 15,2 C 4,5 km/h
15.09.2015 14,8 C 72 % 1007,0 hPa 0,0 l/m 3,1 km/h SO 9,5 C 14,4 C 1,7 km/h
16.09.2015 17,8 C 77 % 997,7 hPa 2,5 l/m 1,0 km/h O-SO 13,4 C 17,7 C 0,5 km/h
17.09.2015 15,0 C 81 % 1004,5 hPa 8,3 l/m 3,3 km/h SO 11,7 C 14,5 C 1,8 km/h
18.09.2015 14,4 C 77 % 1015,3 hPa 0,0 l/m 4,5 km/h SO 10,2 C 13,7 C 2,5 km/h
19.09.2015 14,0 C 80 % 1019,7 hPa 1,2 l/m 2,3 km/h SO 10,5 C 13,8 C 1,3 km/h
20.09.2015 15,6 C 71 % 1021,4 hPa 0,0 l/m 1,5 km/h SO 9,9 C 15,5 C 0,9 km/h
21.09.2015 14,5 C 70 % 1014,3 hPa 0,0 l/m 0,9 km/h NO 8,5 C 14,5 C 0,5 km/h
22.09.2015 13,9 C 78 % 1005,4 hPa 8,3 l/m 9,5 km/h S 10,0 C 11,9 C 5,3 km/h
23.09.2015 12,0 C 82 % 1010,2 hPa 1,2 l/m 3,7 km/h W 8,9 C 11,2 C 2,1 km/h
24.09.2015 15,0 C 71 % 1017,9 hPa 0,0 l/m 1,5 km/h SO 9,4 C 14,8 C 0,9 km/h
25.09.2015 14,8 C 72 % 1019,3 hPa 0,0 l/m 0,2 km/h SO 9,3 C 14,8 C 0,1 km/h
26.09.2015 16,1 C 67 % 1019,8 hPa 0,0 l/m 3,0 km/h O 9,4 C 15,8 C 1,7 km/h
27.09.2015 13,7 C 65 % 1023,6 hPa 0,0 l/m 2,0 km/h N-NO 6,6 C 13,5 C 1,1 km/h
28.09.2015 11,7 C 62 % 1027,7 hPa 0,0 l/m 1,7 km/h SO 3,8 C 11,5 C 1,0 km/h
29.09.2015 15,5 C 48 % 1025,0 hPa 0,0 l/m 4,0 km/h N-NO 4,1 C 14,7 C 2,2 km/h
30.09.2015 13,5 C 56 % 1024,2 hPa 0,0 l/m 1,3 km/h N-NO 3,8 C 13,4 C 0,7 km/h
01.10.2015 11,8 C 60 % 1021,9 hPa 0,0 l/m 0,6 km/h W 3,4 C 11,8 C 0,3 km/h
02.10.2015 11,1 C 70 % 1018,2 hPa 0,0 l/m 0,8 km/h O-NO 5,3 C 11,1 C 0,4 km/h
03.10.2015 15,5 C 66 % 1013,8 hPa 0,0 l/m 2,1 km/h SO 8,3 C 15,3 C 1,2 km/h
04.10.2015 15,2 C 71 % 1015,3 hPa 6,2 l/m 3,2 km/h SO 9,3 C 14,7 C 1,8 km/h
05.10.2015 15,0 C 79 % 1010,9 hPa 1,2 l/m 0,0 km/h SO 11,1 C 15,0 C 0,0 km/h
06.10.2015 16,1 C 83 % 1005,1 hPa 4,1 l/m 1,5 km/h N-NO 13,2 C 15,9 C 0,8 km/h
07.10.2015 15,3 C 78 % 1011,9 hPa 0,4 l/m 9,4 km/h W-SW 11,3 C 13,2 C 5,3 km/h
08.10.2015 12,5 C 76 % 1017,6 hPa 0,0 l/m 0,5 km/h SO 8,2 C 12,4 C 0,3 km/h
09.10.2015 13,5 C 77 % 1016,6 hPa 0,0 l/m 0,0 km/h O 9,4 C 13,5 C 0,0 km/h
10.10.2015 11,9 C 77 % 1012,4 hPa 0,0 l/m 0,0 km/h N-NO 7,7 C 11,9 C 0,0 km/h
11.10.2015 12,6 C 74 % 1009,6 hPa 0,0 l/m 0,0 km/h N-NO 7,8 C 12,6 C 0,0 km/h
12.10.2015 9,3 C 75 % 1011,8 hPa 0,0 l/m 0,0 km/h N-NO 4,8 C 9,3 C 0,0 km/h
13.10.2015 7,8 C 83 % 1011,8 hPa 0,4 l/m 0,0 km/h N-NO 5,1 C 7,8 C 0,0 km/h
14.10.2015 6,7 C 83 % 1013,2 hPa 0,0 l/m 0,0 km/h N-NO 4,1 C 6,7 C 0,0 km/h
15.10.2015 5,5 C 86 % 1012,2 hPa 0,4 l/m 0,0 km/h W 3,3 C 5,5 C 0,0 km/h
16.10.2015 6,6 C 81 % 1015,8 hPa 0,0 l/m 0,0 km/h N-NO 3,5 C 6,6 C 0,0 km/h
17.10.2015 5,9 C 84 % 1015,9 hPa 0,0 l/m 0,0 km/h SO 3,3 C 5,9 C 0,0 km/h
18.10.2015 7,8 C 81 % 1015,4 hPa 0,0 l/m 0,0 km/h SO 4,6 C 7,8 C 0,0 km/h
19.10.2015 8,6 C 77 % 1017,6 hPa 0,0 l/m 0,0 km/h N-NO 4,6 C 8,6 C 0,0 km/h
20.10.2015 6,7 C 78 % 1019,1 hPa 0,0 l/m 0,0 km/h N-NW 2,9 C 6,7 C 0,0 km/h
21.10.2015 8,9 C 75 % 1018,3 hPa 0,0 l/m 0,0 km/h SO 4,3 C 8,9 C 0,0 km/h
22.10.2015 9,7 C 78 % 1017,1 hPa 0,0 l/m 0,0 km/h NO 6,0 C 9,7 C 0,0 km/h
23.10.2015 11,8 C 81 % 1020,8 hPa 0,0 l/m 0,0 km/h SO 8,5 C 11,8 C 0,0 km/h
24.10.2015 11,4 C 75 % 1016,7 hPa 0,0 l/m 0,0 km/h SO 6,8 C 11,4 C 0,0 km/h
25.10.2015 11,9 C 69 % 1020,9 hPa 0,0 l/m 0,0 km/h N-NO 2,9 C 11,9 C 0,0 km/h
26.10.2015 9,5 C 82 % 1016,9 hPa 0,0 l/m 0,0 km/h NO 6,5 C 9,5 C 0,0 km/h
27.10.2015 7,5 C 86 % 1014,4 hPa 0,0 l/m 0,0 km/h N 5,2 C 7,5 C 0,0 km/h
28.10.2015 10,3 C 81 % 1010,2 hPa 3,3 l/m 0,0 km/h W-NW 7,2 C 10,3 C 0,0 km/h
29.10.2015 11,4 C 82 % 1016,8 hPa 5,8 l/m 0,0 km/h W-SW 8,2 C 11,4 C 0,0 km/h
30.10.2015 8,4 C 84 % 1021,9 hPa 0,0 l/m 0,0 km/h O-NO 5,7 C 8,4 C 0,0 km/h
31.10.2015 8,4 C 80 % 1024,1 hPa 0,4 l/m 0,0 km/h W-NW 4,9 C 8,4 C 0,0 km/h
01.11.2015 6,6 C 87 % 1027,5 hPa 0,0 l/m 0,0 km/h NW 4,6 C 6,6 C 0,0 km/h
02.11.2015 6,7 C 86 % 1025,3 hPa 0,4 l/m 0,0 km/h SO 4,5 C 6,7 C 0,0 km/h
03.11.2015 5,3 C 87 % 1020,1 hPa 0,0 l/m 0,0 km/h SO 3,2 C 5,3 C 0,0 km/h
04.11.2015 9,8 C 80 % 1019,5 hPa 0,0 l/m 0,0 km/h NW 6,3 C 9,8 C 0,0 km/h
05.11.2015 13,8 C 76 % 1019,5 hPa 0,0 l/m 0,0 km/h O 9,1 C 13,8 C 0,0 km/h
06.11.2015 15,3 C 76 % 1022,2 hPa 0,0 l/m 0,0 km/h O-SO 10,9 C 15,3 C 0,0 km/h
07.11.2015 18,1 C 77 % 1024,5 hPa 0,0 l/m 0,0 km/h SO 13,7 C 18,1 C 0,0 km/h
08.11.2015 16,2 C 76 % 1025,3 hPa 0,0 l/m 0,0 km/h SO 11,4 C 16,2 C 0,0 km/h
09.11.2015 16,8 C 65 % 1025,7 hPa 0,0 l/m 11,2 km/h SW 10,1 C 14,7 C 6,2 km/h
10.11.2015 13,2 C 74 % 1026,1 hPa 0,0 l/m 2,2 km/h W 8,3 C 13,0 C 1,2 km/h
11.11.2015 4,0 C 68 % 1025,0 hPa 0,0 l/m 0,3 km/h O-SO -10,2 C 4,0 C 0,2 km/h
12.11.2015 9,2 C 77 % 1024,4 hPa 0,0 l/m 0,3 km/h SO 5,0 C 9,2 C 0,2 km/h
13.11.2015 9,2 C 81 % 1024,8 hPa 1,7 l/m 7,7 km/h W-SW 6,0 C 7,3 C 4,3 km/h
14.11.2015 9,6 C 75 % 1027,5 hPa 0,8 l/m 6,3 km/h N 5,2 C 7,8 C 3,5 km/h
15.11.2015 12,8 C 65 % 1019,7 hPa 0,0 l/m 14,8 km/h W-SW 6,3 C 9,3 C 8,2 km/h
16.11.2015 11,8 C 66 % 1016,9 hPa 0,0 l/m 10,2 km/h W 4,6 C 9,5 C 5,7 km/h
17.11.2015 13,8 C 75 % 1016,0 hPa 0,0 l/m 21,0 km/h SW 9,5 C 8,7 C 11,7 km/h
18.11.2015 15,4 C 69 % 1019,3 hPa 0,0 l/m 20,7 km/h W-SW 9,6 C 10,5 C 11,5 km/h
19.11.2015 14,8 C 73 % 1018,4 hPa 0,0 l/m 22,9 km/h W-SW 9,8 C 9,1 C 12,7 km/h
20.11.2015 11,3 C 84 % 1006,0 hPa 44,3 l/m 17,4 km/h S 8,6 C 7,1 C 9,6 km/h
21.11.2015 3,4 C 86 % 997,8 hPa 3,3 l/m 6,7 km/h SO 1,3 C 0,8 C 3,7 km/h
22.11.2015 2,2 C 87 % 1006,4 hPa 2,1 l/m 1,3 km/h O-SO 0,2 C 1,7 C 0,7 km/h
23.11.2015 2,5 C 81 % 1019,8 hPa 1,7 l/m 0,3 km/h W -0,6 C 2,5 C 0,2 km/h
24.11.2015 1,3 C 76 % 1019,5 hPa 0,0 l/m 3,6 km/h SO -2,6 C 0,1 C 2,0 km/h
25.11.2015 3,1 C 87 % 1007,7 hPa 8,7 l/m 3,2 km/h SO 1,2 C 2,2 C 1,8 km/h
26.11.2015 3,2 C 88 % 1013,5 hPa 2,5 l/m 0,0 km/h SO 1,4 C 3,2 C 0,0 km/h
27.11.2015 -0,6 C 87 % 1016,2 hPa 0,4 l/m 0,0 km/h O -2,5 C -0,6 C 0,0 km/h
28.11.2015 2,6 C 87 % 1016,1 hPa 1,7 l/m 5,4 km/h O 0,6 C 0,9 C 3,0 km/h
29.11.2015 7,5 C 80 % 1020,3 hPa 0,0 l/m 24,4 km/h SW 4,3 C -0,7 C 13,5 km/h
30.11.2015 10,4 C 81 % 1023,8 hPa 0,4 l/m 26,1 km/h W-SW 7,2 C 2,4 C 14,5 km/h
01.12.2015 10,2 C 79 % 1027,3 hPa 0,0 l/m 19,3 km/h W 6,7 C 4,4 C 10,7 km/h
02.12.2015 9,5 C 78 % 1027,3 hPa 0,0 l/m 0,3 km/h SO 5,6 C 9,5 C 0,2 km/h
03.12.2015 1,7 C 88 % 1027,3 hPa 0,0 l/m 0,7 km/h O-SO -0,0 C 1,5 C 0,4 km/h
04.12.2015 6,3 C 82 % 1029,3 hPa 0,0 l/m 2,9 km/h N-NO 3,4 C 5,5 C 1,6 km/h
05.12.2015 7,4 C 82 % 1029,3 hPa 0,0 l/m 0,1 km/h O 4,3 C 7,4 C 0,1 km/h
06.12.2015 11,0 C 75 % 1027,2 hPa 0,0 l/m 8,8 km/h W-SW 6,7 C 8,6 C 4,9 km/h
07.12.2015 10,2 C 79 % 1029,6 hPa 0,0 l/m 0,7 km/h O-SO 6,4 C 10,0 C 0,4 km/h
08.12.2015 7,1 C 80 % 1029,1 hPa 0,0 l/m 0,0 km/h O-SO 3,7 C 7,1 C 0,0 km/h
09.12.2015 7,6 C 82 % 1034,1 hPa 5,0 l/m 1,2 km/h SO 4,6 C 7,2 C 0,7 km/h
10.12.2015 2,2 C 82 % 1032,5 hPa 0,4 l/m 0,3 km/h O-SO -0,7 C 2,1 C 0,2 km/h
11.12.2015 5,4 C 77 % 1027,5 hPa 0,0 l/m 10,4 km/h N-NO 1,5 C 2,2 C 5,8 km/h
12.12.2015 8,6 C 73 % 1023,6 hPa 0,0 l/m 9,8 km/h W-SW 3,8 C 5,8 C 5,5 km/h
13.12.2015 5,7 C 81 % 1020,3 hPa 0,0 l/m 0,3 km/h O-SO 2,5 C 5,7 C 0,2 km/h
14.12.2015 3,6 C 85 % 1019,7 hPa 0,0 l/m 0,0 km/h W-NW 1,3 C 3,6 C 0,0 km/h
15.12.2015 6,7 C 84 % 1022,6 hPa 0,0 l/m 1,7 km/h NO 4,2 C 6,1 C 1,0 km/h
16.12.2015 10,8 C 86 % 1025,3 hPa 3,3 l/m 8,8 km/h W-SW 8,5 C 8,4 C 4,9 km/h
17.12.2015 12,6 C 81 % 1024,4 hPa 0,0 l/m 1,0 km/h O-SO 9,2 C 12,6 C 0,6 km/h
18.12.2015 10,3 C 83 % 1022,7 hPa 0,0 l/m 0,4 km/h NO 7,5 C 10,2 C 0,2 km/h
19.12.2015 8,2 C 82 % 1021,4 hPa 0,0 l/m 0,8 km/h O-SO 5,2 C 8,1 C 0,5 km/h
20.12.2015 9,2 C 78 % 1019,7 hPa 0,0 l/m 1,3 km/h NO 5,3 C 9,0 C 0,7 km/h
21.12.2015 11,1 C 75 % 1025,5 hPa 5,0 l/m 17,0 km/h W-SW 6,8 C 6,2 C 9,4 km/h
22.12.2015 12,2 C 66 % 1027,1 hPa 0,0 l/m 11,0 km/h W-SW 5,9 C 9,3 C 6,1 km/h
23.12.2015 11,0 C 76 % 1026,7 hPa 0,0 l/m 9,1 km/h SW 6,8 C 8,7 C 5,0 km/h
24.12.2015 11,2 C 74 % 1023,9 hPa 0,0 l/m 3,6 km/h SO 6,4 C 10,4 C 2,0 km/h
25.12.2015 11,6 C 73 % 1028,4 hPa 0,0 l/m 5,5 km/h S 6,6 C 10,5 C 3,1 km/h
26.12.2015 8,2 C 79 % 1028,3 hPa 0,0 l/m 4,1 km/h O-SO 4,4 C 7,3 C 2,3 km/h
27.12.2015 7,3 C 79 % 1028,3 hPa 0,0 l/m 0,8 km/h O-SO 3,5 C 7,2 C 0,4 km/h
28.12.2015 4,3 C 79 % 1025,3 hPa 0,0 l/m 0,0 km/h NW 0,6 C 4,3 C 0,0 km/h
29.12.2015 6,2 C 78 % 1025,4 hPa 0,0 l/m 1,1 km/h NW 2,5 C 6,1 C 0,6 km/h
30.12.2015 2,8 C 87 % 1023,6 hPa 0,0 l/m 1,0 km/h SO 0,9 C 2,6 C 0,6 km/h
31.12.2015 5,8 C 87 % 1021,2 hPa 0,8 l/m 1,2 km/h SO 3,8 C 5,4 C 0,7 km/h
Min-Datum 01.01.15 02.03.15 30.01.15 126 Tage 01.01.15 - 02.03.15 09.02.15 01.01.15
Min-Zeit 21:53 12:53 00:53 - 00:53 - 12:53 00:53 00:53
Minimum -6,6 C 0 % 973,9 hPa - 0,0 km/h - -60,0 C -15,0 C 0,0 km/h
Max-Datum 06.08.15 03.11.15 09.12.15 20.11.15 09.01.15 - 03.07.15 06.08.15 29.03.15
Max-Zeit 18:04 12:42 18:42 17:42 23:53 - 08:51 18:04 15:51
Maximum 46,4 C 90 % 1037,3 hPa 44,3 l/m 86,0 km/h
SW
- 22,8 C 46,4 C 34,2 km/h
SW
Durchschnitt 12,3 C 71 % 1016,3 hPa #563,5 l/m 3,5 km/h SO 6,5 C 11,5 C 1,9 km/h

Durchschnitt Minimum Temp.5,9 C
Durchschnitt Maximum Temp.20,6 C
www.sexauwetter.de